This is the latest recevied weather packets stored in our database for station/object KC5DAQ-28. If no packets are shown the sender has not sent any weather packets the latest 10 day(s).
| Time | Temp. | Humidity | Pressure | Rain* | Wind** | Luminosity | Snow |
|---|---|---|---|---|---|---|---|
| 1777923122 | 26.67° C | 62% | 1007.2 hPa | 0 mm | - | 373 W/m² | - |
| 1777923063 | 26.67° C | 62% | 1007.3 hPa | 0 mm | - | 366 W/m² | - |
| 1777923002 | 26.67° C | 62% | 1007.3 hPa | 0 mm | - | 382 W/m² | - |
| 1777922945 | 26.67° C | 62% | 1007.3 hPa | 0 mm | - | 382 W/m² | - |
| 1777922882 | 26.67° C | 62% | 1007.3 hPa | 0 mm | - | 484 W/m² | - |
| 1777922823 | 26.67° C | 63% | 1007.2 hPa | 0 mm | - | 415 W/m² | - |
| 1777922763 | 26.67° C | 62% | 1007.2 hPa | 0 mm | - | 805 W/m² | - |
| 1777922704 | 26.67° C | 63% | 1007.3 hPa | 0 mm | - | 617 W/m² | - |
| 1777922645 | 26.67° C | 63% | 1007.2 hPa | 0 mm | - | 392 W/m² | - |
| 1777922583 | 26.67° C | 62% | 1007.3 hPa | 0 mm | - | 392 W/m² | - |
| 1777922523 | 26.67° C | 62% | 1007.3 hPa | 0 mm | - | 403 W/m² | - |
| 1777922461 | 26.67° C | 62% | 1007.3 hPa | 0 mm | - | 521 W/m² | - |
| 1777922404 | 26.67° C | 62% | 1007.3 hPa | 0 mm | - | 521 W/m² | - |
| 1777922343 | 26.67° C | 63% | 1007.4 hPa | 0 mm | - | 503 W/m² | - |
| 1777922283 | 26.67° C | 62% | 1007.3 hPa | 0 mm | - | 487 W/m² | - |
| 1777922224 | 26.67° C | 62% | 1007.3 hPa | 0 mm | - | 433 W/m² | - |
| 1777922162 | 26.67° C | 61% | 1007.3 hPa | 0 mm | - | 415 W/m² | - |
| 1777922103 | 26.67° C | 62% | 1007.3 hPa | 0 mm | - | 399 W/m² | - |
| 1777922043 | 26.67° C | 61% | 1007.3 hPa | 0 mm | - | 389 W/m² | - |
| 1777921983 | 27.22° C | 62% | 1007.4 hPa | 0 mm | - | 392 W/m² | - |
| 1777921923 | 27.22° C | 61% | 1007.5 hPa | 0 mm | - | 392 W/m² | - |
| 1777921863 | 27.22° C | 61% | 1007.5 hPa | 0 mm | - | 392 W/m² | - |
| 1777921804 | 27.22° C | 61% | 1007.5 hPa | 0 mm | - | 494 W/m² | - |
| 1777921743 | 27.22° C | 61% | 1007.6 hPa | 0 mm | - | 1354 W/m² | - |
| 1777921683 | 27.22° C | 61% | 1007.4 hPa | 0 mm | - | 1354 W/m² | - |
* Rain latest hour (hover to see other rain measurements)
** Current wind speed in m/s (hover to see current wind gust speed)